Stations météo

Publicité
Cluanie Inn No 3, Grande-Bretagne (99117): Température de l'air & dewpoint: 13.04.2019 02:00:00 - 19.04.2019 02:00:00 (BST)Cluanie Inn No 3, Grande-Bretagne (99117): Quantités de précipitations: 13.04.2019 02:00:00 - 19.04.2019 02:00:00 (BST)
Date & Time tt [°C] td [°C] rr [mm]
19.04.2019 02:00:00 - - -
19.04.2019 01:00:00 9,9 4,2 -
19.04.2019 00:00:00 10,6 5,9 0,0
18.04.2019 23:00:00 10,8 6,3 0,0
18.04.2019 22:00:00 11,6 6,6 0,0
18.04.2019 21:00:00 13,1 6,6 0,0
18.04.2019 20:00:00 15,1 6,5 0,0
18.04.2019 19:00:00 15,5 6,4 0,0
18.04.2019 18:00:00 16,4 5,6 0,0
18.04.2019 17:00:00 17,6 5,1 0,0
18.04.2019 16:00:00 16,8 5,6 0,0
18.04.2019 15:00:00 18,1 6,5 0,0
18.04.2019 14:00:00 17,1 5,4 0,0
18.04.2019 13:00:00 16,8 5,1 0,0
18.04.2019 12:00:00 15,6 3,8 0,0
18.04.2019 11:00:00 14,5 5,7 0,0
18.04.2019 10:00:00 11,2 4,9 0,0
18.04.2019 09:00:00 8,9 3,6 0,0
18.04.2019 08:00:00 7,7 2,2 0,0
18.04.2019 07:00:00 7,1 1,7 0,0
18.04.2019 06:00:00 5,6 1,9 0,0
18.04.2019 05:00:00 4,9 1,6 0,0
18.04.2019 04:00:00 6,1 1,5 0,0
18.04.2019 03:00:00 5,2 1,5 0,0
18.04.2019 02:00:00 5,1 1,5 0,0
18.04.2019 01:00:00 5,5 1,6 0,0
18.04.2019 00:00:00 6,9 2,3 0,0
17.04.2019 23:00:00 7,8 2,6 0,0
17.04.2019 22:00:00 8,1 3,3 0,0
17.04.2019 21:00:00 9,7 3,1 0,0
17.04.2019 20:00:00 10,8 4,0 0,0
17.04.2019 19:00:00 12,7 4,3 0,0
17.04.2019 18:00:00 13,2 4,0 0,0
17.04.2019 17:00:00 14,0 4,2 0,0
17.04.2019 16:00:00 14,0 3,8 0,0
17.04.2019 15:00:00 13,8 4,4 0,0
17.04.2019 14:00:00 12,7 2,7 0,0
17.04.2019 13:00:00 11,9 2,8 0,0
17.04.2019 12:00:00 10,6 2,8 0,0
17.04.2019 11:00:00 9,0 2,3 0,0
17.04.2019 10:00:00 7,4 3,0 0,0
17.04.2019 09:00:00 6,7 2,7 0,0
17.04.2019 08:00:00 5,8 2,4 0,0
17.04.2019 07:00:00 5,5 1,6 0,0
17.04.2019 06:00:00 5,2 2,5 0,0
17.04.2019 05:00:00 5,2 2,8 0,0
17.04.2019 04:00:00 5,4 2,7 0,0
17.04.2019 03:00:00 5,3 3,1 0,0
17.04.2019 02:00:00 5,5 3,6 0,0
17.04.2019 01:00:00 5,7 3,9 0,0
17.04.2019 00:00:00 5,8 4,2 0,0
16.04.2019 23:00:00 5,7 4,3 0,0
16.04.2019 22:00:00 5,9 4,3 0,0
16.04.2019 21:00:00 6,6 4,1 0,0
16.04.2019 20:00:00 6,6 4,4 0,0
16.04.2019 19:00:00 6,9 4,8 0,0
16.04.2019 18:00:00 7,3 5,1 0,0
16.04.2019 17:00:00 7,6 5,6 0,0
16.04.2019 16:00:00 7,4 5,3 0,0
16.04.2019 15:00:00 7,3 5,3 0,0
16.04.2019 14:00:00 7,1 5,2 0,0
16.04.2019 13:00:00 7,1 5,1 0,0
16.04.2019 12:00:00 7,8 4,8 0,0
16.04.2019 11:00:00 8,7 3,6 0,0
16.04.2019 10:00:00 7,0 4,2 0,0
16.04.2019 09:00:00 7,0 3,9 0,0
16.04.2019 08:00:00 7,4 2,2 0,0
16.04.2019 07:00:00 7,0 1,8 0,0
16.04.2019 06:00:00 6,9 1,5 0,0
16.04.2019 05:00:00 7,1 1,4 0,0
16.04.2019 04:00:00 7,0 1,2 0,0
16.04.2019 03:00:00 7,0 1,0 0,0
16.04.2019 02:00:00 6,6 0,8 0,0
16.04.2019 01:00:00 6,9 1,0 0,0
16.04.2019 00:00:00 6,9 1,3 0,0
15.04.2019 23:00:00 7,3 1,3 0,0
15.04.2019 22:00:00 7,1 0,6 0,0
15.04.2019 21:00:00 7,4 0,4 0,0
15.04.2019 20:00:00 8,1 -0,5 0,0
15.04.2019 19:00:00 8,3 -0,6 0,0
15.04.2019 18:00:00 8,9 -0,6 0,0
15.04.2019 17:00:00 9,2 -1,6 0,0
15.04.2019 16:00:00 9,8 -2,3 0,0
15.04.2019 15:00:00 9,4 -1,9 0,0
15.04.2019 14:00:00 10,2 -1,4 0,0
15.04.2019 13:00:00 9,0 -1,6 0,0
15.04.2019 12:00:00 7,2 -1,1 0,0
15.04.2019 11:00:00 6,7 -0,7 0,0
15.04.2019 10:00:00 5,7 -1,2 0,0
15.04.2019 09:00:00 4,3 -2,3 0,0
15.04.2019 08:00:00 4,3 -2,1 0,0
15.04.2019 07:00:00 4,0 -2,4 0,0
15.04.2019 06:00:00 3,8 -2,8 0,0
15.04.2019 05:00:00 4,1 -2,9 0,0
15.04.2019 04:00:00 4,4 -2,2 0,0
15.04.2019 03:00:00 4,4 -2,0 0,0
15.04.2019 02:00:00 4,2 -0,3 0,0
15.04.2019 01:00:00 4,6 -1,2 0,0
15.04.2019 00:00:00 4,5 -2,5 0,0
14.04.2019 23:00:00 4,8 -2,3 0,0
14.04.2019 22:00:00 5,0 -1,6 0,0
14.04.2019 21:00:00 5,8 -1,1 0,0
14.04.2019 20:00:00 6,2 -1,6 0,0
14.04.2019 19:00:00 6,8 -1,5 0,0
14.04.2019 18:00:00 7,1 -1,0 0,0
14.04.2019 17:00:00 7,0 -1,5 0,0
14.04.2019 16:00:00 7,0 -1,0 0,0
14.04.2019 15:00:00 7,2 -2,2 0,0
14.04.2019 14:00:00 7,8 -2,4 0,0
14.04.2019 13:00:00 8,4 -3,1 0,0
14.04.2019 12:00:00 7,6 -3,0 0,0
14.04.2019 11:00:00 7,6 -2,8 0,0
14.04.2019 10:00:00 5,5 -2,7 0,0
14.04.2019 09:00:00 4,6 -2,8 0,0
14.04.2019 08:00:00 3,8 -2,6 0,0
14.04.2019 07:00:00 2,5 -3,2 0,0
14.04.2019 06:00:00 2,2 -3,4 0,0
14.04.2019 05:00:00 2,5 -3,8 0,0
14.04.2019 04:00:00 2,5 -3,9 0,0
14.04.2019 03:00:00 2,8 -4,0 0,0
14.04.2019 02:00:00 2,7 -3,7 0,0
14.04.2019 01:00:00 3,3 -3,8 0,0
14.04.2019 00:00:00 3,4 -3,4 0,0
13.04.2019 23:00:00 3,5 -2,7 0,0
13.04.2019 22:00:00 4,4 -2,6 0,0
13.04.2019 21:00:00 4,9 -2,7 0,0
13.04.2019 20:00:00 5,9 -2,8 0,0
13.04.2019 19:00:00 6,8 -2,5 0,0
13.04.2019 18:00:00 8,0 -2,4 0,0
13.04.2019 17:00:00 8,1 -2,3 0,0
13.04.2019 16:00:00 8,6 -1,9 0,0
13.04.2019 15:00:00 8,4 -1,8 0,0
13.04.2019 14:00:00 8,2 -2,6 0,0
13.04.2019 13:00:00 8,5 -1,8 0,0
13.04.2019 12:00:00 7,3 -2,1 0,0
13.04.2019 11:00:00 6,0 -3,2 0,0
13.04.2019 10:00:00 5,4 -2,7 0,0
13.04.2019 09:00:00 4,5 -2,7 0,0
13.04.2019 08:00:00 3,1 -2,2 0,0
13.04.2019 07:00:00 2,3 -2,2 0,0
13.04.2019 06:00:00 2,2 -2,7 0,0
13.04.2019 05:00:00 1,3 -3,2 0,0
13.04.2019 04:00:00 1,6 -2,4 0,0
13.04.2019 03:00:00 2,4 -1,8 0,0
13.04.2019 02:00:00 4,1 -0,6 0,0

tt = Température de l'air
td = dewpoint
rr = Quantités de précipitations

stations d'obs. à proximité